Location: Caltech
(34.1382°N, 118.1253°W)
Time: 04:15:35
(UTC-08:00)

ADEOS II - Visible Passes

Search period start: 25 January 2015 00:00
Search period end: 04 February 2015 00:00
Orbit: 800 x 803 km, 98.3° (Epoch: 24 January)

Date Brightness Start Highest point End Pass type
(mag) Time Alt. Az. Time Alt. Az. Time Alt. Az.
25 Jan 4.5 04:38:02 10° NE 04:41:58 22° E 04:46:05 10° SE visible
25 Jan 2.6 06:17:03 10° N 06:21:53 37° WNW 06:26:39 10° SW visible
25 Jan 4.0 17:32:56 10° SSW 17:37:45 36° W 17:42:32 10° NNW visible
26 Jan 5.2 04:13:58 10° ENE 04:15:32 12° E 04:17:29 10° ESE visible
26 Jan 2.0 05:50:38 10° N 05:55:52 67° WNW 06:01:05 10° SSW visible
27 Jan 2.5 05:24:32 10° NNE 05:29:47 67° E 05:35:01 10° S visible
27 Jan 5.5 18:24:01 10° WSW 18:25:49 11° W 18:27:12 10° WNW visible
28 Jan 3.6 04:58:47 10° NNE 05:03:35 36° E 05:08:26 10° SSE visible
28 Jan 5.0 17:55:18 10° SW 17:59:21 22° W 18:03:15 10° NW visible
29 Jan 4.6 04:33:32 10° NE 04:37:15 20° E 04:41:09 10° SE visible
29 Jan 2.5 06:12:18 10° N 06:17:13 41° WNW 06:22:05 10° SW visible
30 Jan 5.4 04:10:16 10° E 04:10:48 10° E 04:11:45 10° E visible
30 Jan 2.0 05:45:57 10° N 05:51:12 74° WNW 05:56:26 10° SSW visible
31 Jan 2.6 05:19:53 10° NNE 05:25:06 61° E 05:30:18 10° S visible
31 Jan 5.4 18:18:40 10° WSW 18:21:04 13° W 18:23:07 10° WNW visible
01 Feb 3.8 04:54:11 10° NNE 04:58:53 33° E 05:03:37 10° SSE visible
01 Feb 4.8 17:50:24 10° SSW 17:54:38 24° W 17:58:44 10° NW visible
02 Feb 4.8 04:29:04 10° NE 04:32:32 18° E 04:36:12 10° SE visible
02 Feb 2.4 06:07:33 10° N 06:12:34 44° WNW 06:17:31 10° SW visible
03 Feb 2.0 05:41:14 10° N 05:46:32 81° WNW 05:51:47 10° SSW visible
